Home   Weather   Alwar   Past weeks

Flag for India Past Weather in Alwar, Rajasthan, India — Yesterday and Last 2 Weeks

Now
84 °F

Passing clouds.


Feels Like: 91 °F
Forecast: 80 / 94 °F
Wind: 3 mph from Southeast

Location: Jaipur / Sanganer

Current Time: Oct 2, 2016 at 12:30:18 AM

Latest Report: Oct 2, 2016 at 12:00 AM


Visibility: 2 mi

Pressure: 29.86 "Hg

Humidity: 70%

Dew Point: 73 °F

Location of AlwarLocation

Past Weather in Alwar — Graph

°F

Alwar Temperature Yesterday

Maximum temperature yesterday: 97 °F (at 3:00 PM)
Minimum temperature yesterday: 81 °F (at 5:00 AM)
Average temperature yesterday: 88 °F

High & Low Weather Summary for the Past Weeks

 TemperatureHumidityPressure
High100 °F (Sep 21, 3:30 PM)94% (Sep 24, 1:30 AM)29.86 "Hg (Sep 24, 1:30 AM)
Low72 °F (Sep 24, 1:00 AM)27% (Sep 17, 4:30 PM)29.56 "Hg (Sep 22, 9:00 AM)
Average87 °F56%29.75 "Hg
* Reported Sep 16 11:30 PM — Oct 1 11:30 PM, Alwar, Weather by CustomWeather, © 2016

Note: Actual official high and low records may vary slightly from our data, if they occured in-between our weather recording intervals... More about our weather records

Advertising

Alwar Weather History for the Previous 24 Hours

Scroll right to see more
 ConditionsComfort  
Time TempWeatherWind HumidityBarometerVisibility
11:30 PM
Sat, Oct 1
86 °FPassing clouds.3 mph66%29.86 "Hg2 mi
11:00 PM86 °FPassing clouds.3 mph66%29.86 "Hg2 mi
10:00 PM86 °FPassing clouds.2 mph66%29.83 "Hg2 mi
9:30 PM86 °FPassing clouds.3 mph66%29.83 "Hg2 mi
9:00 PM86 °FPassing clouds.1 mph66%29.83 "Hg2 mi
8:30 PM86 °FPassing clouds.1 mph66%29.80 "Hg2 mi
8:00 PM88 °FPassing clouds.2 mph62%29.80 "Hg2 mi
7:30 PM88 °FPassing clouds.5 mph59%29.80 "Hg3 mi
7:00 PM90 °FSmoke.1 mph55%29.80 "HgN/A
6:30 PM90 °FScattered clouds.3 mph55%29.77 "Hg3 mi
6:00 PM90 °FScattered clouds.3 mph55%29.74 "Hg3 mi
5:30 PM90 °FScattered clouds.1 mph55%29.74 "Hg3 mi
5:00 PM91 °FScattered clouds.8 mph52%29.74 "Hg3 mi
4:30 PM93 °FScattered clouds.8 mph49%29.74 "Hg3 mi
4:00 PM93 °FScattered clouds.7 mph53%29.74 "Hg3 mi
3:30 PM91 °FScattered clouds.12 mph52%29.74 "Hg3 mi
3:00 PM97 °FScattered clouds.9 mph42%29.74 "Hg3 mi
2:30 PM95 °FScattered clouds.7 mph44%29.77 "Hg3 mi
2:00 PM95 °FScattered clouds.8 mph47%29.77 "Hg3 mi
1:00 PM93 °FScattered clouds.9 mph49%29.80 "Hg3 mi
12:30 PM93 °FScattered clouds.9 mph53%29.80 "Hg3 mi
12:00 PM93 °FScattered clouds.8 mph53%29.83 "Hg3 mi
11:30 AM91 °FScattered clouds.8 mph56%29.83 "Hg3 mi
11:00 AM91 °FPassing clouds.8 mph56%29.83 "Hg3 mi
10:30 AM90 °FHaze.9 mph55%29.83 "Hg2 mi
10:00 AM88 °FHaze.7 mph62%29.83 "Hg2 mi
9:30 AM90 °FHaze.6 mph55%29.83 "Hg2 mi
9:00 AM86 °FHaze.5 mph66%29.83 "Hg2 mi
7:30 AM82 °FHaze.5 mph70%29.80 "Hg2 mi
7:00 AM81 °FHaze.No wind74%29.80 "Hg2 mi
6:30 AM81 °FHaze.1 mph74%29.80 "Hg2 mi
6:00 AM81 °FHaze.No wind74%29.80 "Hg2 mi
5:30 AM81 °FHaze.3 mph74%29.80 "Hg2 mi
5:00 AM81 °FHaze.3 mph74%29.77 "Hg2 mi
3:00 AM82 °FHaze.No wind66%29.77 "Hg2 mi
1:00 AM82 °FHaze.3 mph66%29.77 "Hg2 mi
Weather by CustomWeather, © 2016

See weather overviewHow to use our weather pages